Regional Weather Roundup
Issued by NWS Grand Forks, ND

Home | Current Version | Previous Version | Graphics & Text | Print | Product List | Glossary On
Versions: 1 2 3 4 5 6 7 8 9 10 11 12 13 14 15 16 17 18 19 20 21 22 23 24 25 26 27 28 29 30 31 32 33 34 35 36 37 38 39 40 41 42 43 44 45 46 47 48 49 50
000
ASUS43 KFGF 251931
RWRFGF
PRAIRIE TO PINES  WEATHER ROUNDUP
NATIONAL WEATHER SERVICE EASTERN NORTH DAKOTA/GRAND FORKS ND
200 PM CDT MON JUL 25 2016

 **SATELLITE DATA USED TO AUGMENT SKY COVER AT AUTOMATED STATIONS**
 *****  WEATHER ACROSS EASTERN NORTH DAKOTA  *****

CITY           SKY/WX    TMP DP  RH WIND       PRES   REMARKS
GRAND FORKS    SUNNY     85  63  47 SE12      29.97F
GRAND FRKS AFB SUNNY     84  63  49 S8        29.98F
GRAND FRKS NWS   N/A     86 N/A N/A S15         N/A
DEVILS LAKE    SUNNY     83  64  52 SE9       29.98F
FARGO          SUNNY     85  64  49 S13G21    30.00F
WAHPETON ARPT  CLEAR     84  63  48 S9        30.02F
$$

 ***** WEATHER ACROSS CENTRAL AND WESTERN NORTH DAKOTA  *****

CITY           SKY/WX    TMP DP  RH WIND       PRES   REMARKS
BISMARCK       SUNNY     88  66  48 S10       29.96F HX  90
MINOT          SUNNY     88  62  41 E7        29.95S
JAMESTOWN      SUNNY     88  62  41 S18G25    29.97F
MINOT AFB      SUNNY     83  61  46 VRB6      29.94F
GARRISON         N/A     83  64  52 E3        29.96F
WILLISTON      SUNNY     89  53  29 NE7       29.97F
DICKINSON      SUNNY     89  52  28 VRB3      29.98S
HETTINGER      SUNNY     97  51  21 SE9G16    29.99F HX  94
$$

 *****  OTHER AIRPORT OBSERVATIONS IN OUR AREA  *****

CITY           SKY/WX    TMP DP  RH WIND       PRES   REMARKS
WALHALLA       FAIR      82  79  89 NW7       29.96F HX  93
GRAFTON AIRPOR FAIR      82  63  51 VRB7      29.98F
VALLEY CITY AR FAIR      86  63  45 S14G22    30.00F
CANDO          FAIR      82  66  57 SE7       29.99F
CAVALIER APRT  FAIR      82  63  51 W3        29.96F
GWINNER        FAIR      88  63  42 S16       30.01F
SHEYENNE NWR     N/A     89  60  37 SW14      29.95S
ROLLA            N/A     79  64  61 E7        30.00F
 ***** THE ABOVE OBSERVATIONS ARE NON NWS ARE NOT QUALITY
       CONTROLLED AND MAY MIS-REPORT RAIN FOR SNOW...
$$

  *****  WEATHER ACROSS NORTHERN MINNESOTA  *****

CITY           SKY/WX    TMP DP  RH WIND       PRES   REMARKS
FLAG ISLAND    MOSUNNY   79  57  47 NW9       29.95F
WARROAD        SUNNY     79  64  61 SW9       29.98S
ROSEAU         SUNNY     81  66  61 W8        29.99S
HALLOCK        SUNNY     81  63  54 CALM      29.97S
THF RVR FALLS  SUNNY     79  62  56 SW7       30.01F
BAUDETTE       SUNNY     81  59  47 NW10      29.98F
WASKISH        SUNNY     79  64  61 SW10      30.00F
CROOKSTON      SUNNY     82  63  51 SW8       29.99F
STEPHEN NDAWN    N/A     82  63  51 S5          N/A
GREENBUSH NDAW   N/A     81  64  57 NW6         N/A
$$
  *****  WEATHER ACROSS CENTRAL AND WEST MINNESOTA  *****

CITY           SKY/WX    TMP DP  RH WIND       PRES   REMARKS
FOSSTON        SUNNY     81  61  50 SW7       30.03S
BEMIDJI        SUNNY     81  61  50 W10       30.03F
PARK RAPIDS    SUNNY     83  60  45 VRB6      30.04F
ELBOW LAKE     FAIR      82  66  58 SW8       30.06S
WADENA         SUNNY     81  63  54 SW9       30.05S
DETROIT LAKES  SUNNY     81  61  50 SW7       30.05F
MOORHEAD       SUNNY     84  63  48 S12       30.01F
FERGUS FALLS   SUNNY     82  64  54 SW8       30.05F
MORRIS MN      SUNNY     86  64  48 S8        30.05F
STAPLES        SUNNY     82  57  42 W8        30.05S
$$
  *****  WEATHER ELSEWHERE ACROSS MINNESOTA  *****

CITY           SKY/WX    TMP DP  RH WIND       PRES   REMARKS
DULUTH         MOSUNNY   80  60  50 NW14G21   30.02S
INTRNTL FALLS  MOSUNNY   80  60  50 W9        29.98F
ELY            MOSUNNY   79  57  47 W9G18     30.00S
CLOQUET        MOSUNNY   81  55  41 W8        30.02F
WHEATON        SUNNY     88  66  48 S9        30.04F HX  90
BRAINERD       SUNNY     81  60  48 W10       30.05F
HIBBING        MOSUNNY   78  59  51 NW13      30.02S
ALEXANDRIA     SUNNY     82  60  47 W9        30.09F
SAINT CLOUD    SUNNY     83  63  50 NW7       30.06S
MINNEAPOLIS    SUNNY     86  60  41 NW12      30.05F
$$

  *****  WEATHER ACROSS SOUTH DAKOTA  *****

CITY           SKY/WX    TMP DP  RH WIND       PRES   REMARKS
SIOUX FALLS    SUNNY     83  57  41 SW13      30.11F
BROOKINGS      SUNNY     83  57  41 SW13      30.11F
WATERTOWN      SUNNY     87  58  37 SW14      30.08F
HURON          SUNNY     88  58  36 S12G24    30.05F
SISSETON         N/A     88  56  33 SW15      30.03F
ABERDEEN       SUNNY     90  58  33 S16G23    30.02F
MITCHELL       SUNNY     88  59  37 S16       30.08F
PIERRE         SUNNY     94  51  23 S21G31    30.00F HX  91
MOBRIDGE       SUNNY     96  56  26 S18G26    29.95F HX  94
RAPID CITY     SUNNY     90  57  32 S20G26    30.05F
$$

  *****  SOME WEATHER IN NEARBY STATES *****

CITY           SKY/WX    TMP DP  RH WIND       PRES   REMARKS
GLASGOW MT     SUNNY     90  47  22 VRB3      29.98F
GREAT FALLS MT SUNNY     84  44  24 MISG      30.09F
CHEYENNE WY    SUNNY     82  53  36 SE14G20   30.24F
SCOTTSBLUFF NE SUNNY     88  56  33 SE16G23   30.11F
OMAHA NE       MOSUNNY   87  65  47 VRB5      30.11F
DES MOINES IA  MOSUNNY   87  60  40 N9        30.08F
DAVENPORT IA   MOSUNNY   83  67  58 VRB6      30.05S
CHICAGO IL     MOSUNNY   86  60  41 W8        30.00S
EAU CLAIRE WI  MOSUNNY   83  60  45 NW10      30.04S
LA CROSSE WI   SUNNY     84  63  49 NW12      30.03F
$$

  *****  SOME NATIONAL WEATHER *****

CITY           SKY/WX    TMP DP  RH WIND       PRES   REMARKS
LA GUARDIA NY  MOSUNNY   91  73  55 S13       29.85F HX  99
RALEIGH NC     PTSUNNY   93  74  53 SW7       29.99F HX 103
ATLANTA GA     PTSUNNY   95  64  35 VRB6      30.03F HX  97
NEW ORLEANS LA MOSUNNY   92  76  59 E10       29.92F HX 104
OKLAHOMA CITY  CLOUDY    93  71  48 VRB6      30.01F HX 100
ALBUQUERQUE NM MOSUNNY   90  48  23 VRB6      30.22F
SALT LAKE CITY MOSUNNY   96  43  16 SE10      30.05F HX  92
LOS ANGELES CA MOSUNNY   81  66  60 W8        29.96F
BOISE ID       SUNNY     87  41  19 CALM      30.02F
SEATTLE WA     MOSUNNY   77  59  53 W8        30.08F
$$

*** WEATHER ACROSS MANITOBA...SASKATCHEWAN AND ONTARIO ***
                ***ONTARIO***

CITY           SKY/WX    TMP DP  RH WIND       PRES   REMARKS
GERALDTON      PTSUNNY   73  61  64 W8G23     29.82R
THUNDER BAY    PTSUNNY   81  59  47 W15G25    29.89S
SIOUX LOOKOUT  MOSUNNY   77  59  53 W14       29.92S
TORONTO        MOSUNNY   88  64  45 W17G26    29.81F
BIG TROUT LK   SUNNY     70  57  64 NW12G20   29.74S
PICKLE LAKE    PTSUNNY   75  54  46 NW10G28   29.83S
DRYDEN         MOSUNNY   77  59  53 W9G18     29.94F
KENORA         MOSUNNY   77  59  53 NW6       29.96S
$$
                *** MANITOBA***

CITY           SKY/WX    TMP DP  RH WIND       PRES   REMARKS
BRANDON        MOSUNNY   81  59  47 SW5       29.97S
DAUPHIN        SUNNY     81  63  54 W14G20    29.92F
ISLAND LAKE    PTSUNNY   79  59  50 W17G26    29.71F
PILOT MOUND      N/A     79  59  50 N2          N/A
THE PAS        MOSUNNY   73  50  43 NW16      29.86R
THOMPSON       PTSUNNY   70  57  64 W13G22    29.70R
WINNIPEG       MOSUNNY   81  63  54 W8        29.95F
LYNN LAKE      CLOUDY    64  55  72 MISG      29.76R
CHURCHILL      PTSUNNY   63  55  77 S14       29.62F
GILLAM         MOSUNNY   72  63  73 W5        29.61F
$$
                ***SASKATCHEWAN***

CITY           SKY/WX    TMP DP  RH WIND       PRES   REMARKS
ESTEVAN        MOSUNNY   82  64  54 SE6       29.99S
KINDERSLEY     MOSUNNY   75  57  53 CALM      30.07S
LLOYDMINSTER   MOSUNNY   70  52  52 NW12      30.07S
PRINCE ALBERT  MOSUNNY   75  54  46 NW9G20    29.98S
REGINA         PTSUNNY   81  63  54 N5        29.99S
YORKTON        MOSUNNY   81  61  50 W9        29.96F
N. BATTLEFORD  SUNNY     73  52  46 NW9       30.06S
LA RONGE       PTSUNNY   70  52  52 NW16G24   29.92S
SASKATOON      MOSUNNY   79  52  38 NW17G25   30.03S
SWIFT CURRENT  SUNNY     77  59  53 NE9       30.05S
$$
NOTE: THESE ARE AUTOMATED STATIONS WITH LIMITED QUALITY CONTROL
      "FAIR" INDICATES FEW OR NO CLOUDS BELOW 12,000 FEET WITH NO
      SIGNIFICANT WEATHER AND/OR OBSTRUCTIONS TO VISIBILITY.
      SKY/WX - SKY CONDITION AND SIGNIFICANT WEATHER.
      TMP - AIR TEMPERATURE.    DP   - DEWPOINT TEMPERATURE.
      RH  - RELATIVE HUMIDITY.  PRES - PRESSURE.
      HX  - HEAT INDEX.         WCI  - WIND CHILL INDEX.
$




USA.gov is the U.S. government's official web portal to all federal, state and local government web resources and services.